Wind_Speed
20 21 23 24 25 26 28 28 28 29 31 32 33 33 33 34 34 34 35 35 37 38 39 41 42 43 44 45 46 47 48 49 51 52 53 54 54 55 55 55 55 55 55 54
21 21 22 23 25 26 28 30 31 32 33 34 34 35 36 36 36 37 37 37 38 39 40 42 42 43 44 44 45 47 49 50 51 51 52 53 53 54 54 54 54 54 53 53
21 22 22 23 25 27 29 30 31 33 35 35 36 36 36 37 37 38 39 39 40 40 41 41 42 42 44 45 47 48 49 49 49 50 51 52 52 52 53 52 52 51 51 50
20 22 22 24 25 26 28 29 31 32 33 34 34 35 36 36 35 36 36 37 38 39 40 40 41 42 44 45 46 47 47 48 48 49 49 50 50 50 49 49 49 48 48 48
18 20 22 24 23 24 25 27 29 30 30 31 32 33 34 34 34 35 36 37 37 38 39 39 41 42 43 44 45 46 46 46 46 46 47 47 47 46 46 46 47 47 47 47
17 18 21 22 20 20 21 24 24 25 26 27 28 30 31 31 32 33 33 35 36 37 37 39 40 41 42 43 43 43 43 44 44 44 44 44 44 44 44 45 45 46 46 47
15 17 19 19 17 18 20 22 22 22 23 25 26 28 29 29 30 31 32 33 34 35 36 37 38 39 40 40 40 41 41 41 41 42 42 42 42 43 43 44 44 45 45 45
13 15 16 16 16 17 19 20 20 21 22 23 24 25 26 27 28 29 30 31 32 34 35 35 36 36 37 38 38 38 38 38 39 39 40 41 41 42 42 43 43 42 42 41
13 14 15 15 15 17 17 18 19 19 21 22 23 24 24 25 26 27 28 30 31 32 32 32 33 33 34 34 35 35 35 36 37 39 39 40 40 40 40 39 38 37 35 32
12 13 14 14 14 15 15 16 17 18 19 20 21 22 23 24 24 25 26 27 28 28 29 29 30 31 31 31 32 33 35 36 37 38 38 38 37 36 34 33 30 28 26 23
11 12 13 13 14 15 16 16 17 18 19 19 20 20 20 20 21 22 23 24 25 25 26 26 27 28 29 30 32 33 35 35 36 35 34 31 30 28 27 25 23 20 18 16
10 11 12 13 14 14 14 15 16 16 17 17 18 18 18 19 20 20 20 21 21 22 22 23 25 27 29 31 31 31 32 31 30 28 26 24 23 21 20 18 16 14 12 11
10 11 11 12 13 13 14 14 14 15 15 15 15 16 16 16 16 17 17 17 18 19 21 23 25 27 28 28 28 28 27 26 24 21 19 18 16 15 13 12 10 9 8 6
9 10 10 11 11 11 11 12 12 12 12 12 12 12 12 12 13 13 13 15 16 18 20 22 23 24 25 25 24 23 21 18 16 15 13 12 11 10 9 8 7 6 5 5
8 8 9 10 10 10 10 10 10 9 8 8 9 9 9 9 9 10 12 13 15 17 19 20 21 21 21 21 19 17 15 14 13 11 10 9 9 8 8 8 7 7 8 8
7 8 8 9 9 9 9 8 8 7 6 6 6 6 6 7 8 9 11 13 14 16 17 18 19 19 18 17 16 15 13 12 10 10 9 8 8 8 8 8 9 9 9 10
7 7 7 8 7 7 6 6 5 4 4 4 4 4 4 5 7 9 11 12 13 14 16 16 17 17 17 16 14 13 12 11 10 10 10 9 9 9 10 10 11 11 11 12
6 6 6 6 5 4 4 3 2 1 1 2 2 2 3 5 7 9 10 11 13 14 15 16 16 16 15 15 14 13 12 12 12 12 12 11 11 12 12 12 12 12 13 14
5 5 6 5 4 3 2 1 0 0 0 1 2 3 4 6 8 9 10 12 13 13 14 15 15 15 15 14 14 13 13 13 13 13 13 13 13 13 13 13 13 13 14 14
5 5 5 4 3 2 1 0 0 1 2 3 3 4 6 7 9 10 11 12 13 14 14 15 15 15 15 14 14 14 14 14 14 14 14 14 13 13 13 13 14 14 14 14
4 4 4 3 2 1 1 1 2 3 4 4 4 5 6 8 9 11 12 13 14 15 15 16 16 16 15 15 15 15 14 14 14 14 14 14 14 14 14 14 14 14 15 15
3 3 2 1 1 2 2 3 3 4 5 5 5 5 7 8 10 11 12 14 15 16 17 17 17 17 16 16 16 15 15 15 15 14 14 14 14 14 14 14 14 14 14 14
4 3 2 2 2 3 3 4 4 5 5 5 5 5 7 8 10 11 12 14 16 17 18 18 18 18 18 18 17 17 16 16 16 15 15 14 14 14 14 13 13 13 13 13
5 4 4 3 3 4 4 5 6 6 6 5 5 5 7 8 10 11 13 14 16 17 18 19 19 20 20 20 19 19 18 17 17 16 16 15 15 15 14 14 13 13 13 13
6 6 5 5 5 5 6 7 7 7 7 6 5 6 7 8 9 11 13 14 15 17 18 19 20 20 21 22 22 21 20 20 19 18 18 17 17 17 16 16 15 15 15 15
8 7 6 6 6 7 7 8 8 8 8 7 6 6 7 8 9 10 12 13 15 16 17 18 20 21 21 22 23 22 22 22 21 21 21 20 20 19 19 18 17 17 16 16
9 8 8 8 8 8 9 9 9 9 9 8 7 7 7 7 8 9 10 12 13 14 16 17 18 19 20 21 21 22 22 22 22 22 22 22 21 21 20 20 19 19 18 18
Wind_Direction
250 248 248 246 242 241 241 241 243 248 252 256 257 259 260 261 263 264 265 266 269 270 271 273 274 275 277 279 281 282 283 284 285 286 288 289 290 291 292 293 293 294 294 294
256 253 251 250 247 246 246 246 247 250 253 256 258 259 261 263 264 266 268 269 271 273 275 277 278 279 281 283 284 284 284 285 287 288 289 289 290 291 292 292 293 293 293 292
257 256 254 254 252 252 252 252 252 253 254 255 257 258 261 263 265 267 270 272 274 276 277 278 280 282 283 283 283 285 286 287 288 288 289 290 290 291 292 292 292 292 292 292
256 256 255 255 258 256 255 257 256 257 259 260 260 261 262 264 266 268 270 272 273 275 277 278 279 280 282 283 285 286 288 288 289 289 290 290 291 291 291 291 291 291 292 292
260 259 261 260 258 257 257 257 257 257 259 261 261 263 265 267 267 269 272 274 276 277 279 280 280 282 284 286 287 288 289 289 290 290 290 291 291 291 291 291 292 292 293 293
265 262 262 264 261 260 261 261 260 259 259 260 261 262 264 266 267 270 273 274 275 277 279 280 282 284 286 288 289 290 291 291 291 291 291 291 292 292 292 293 293 294 294 295
270 267 266 266 265 262 258 258 259 259 259 259 260 262 264 265 267 270 272 274 275 277 280 283 285 287 289 290 291 292 292 292 293 293 293 293 294 294 295 295 295 295 296 296
272 268 267 268 262 257 258 259 260 261 260 260 261 262 264 266 268 271 274 276 279 282 284 286 288 290 291 291 292 293 293 294 294 294 295 295 296 296 297 297 297 297 297 297
276 272 272 271 263 258 259 261 261 262 264 266 266 267 269 271 273 276 279 282 284 286 288 290 291 292 292 294 294 295 296 296 297 297 298 298 299 299 299 299 299 299 299 299
278 273 274 274 269 263 262 262 262 265 268 268 269 269 271 273 276 280 283 285 287 289 290 292 293 294 296 297 298 299 300 300 300 300 301 301 301 302 302 303 303 303 302 302
281 277 274 275 274 269 267 269 270 270 271 273 274 275 277 280 282 284 286 288 290 291 293 295 297 299 300 301 302 303 303 304 304 304 305 305 305 306 306 306 307 306 305 305
288 281 277 277 279 278 277 276 277 277 277 278 279 280 282 284 286 288 290 291 294 297 299 301 303 305 306 307 308 308 308 309 310 310 310 310 311 312 313 314 313 313 312 311
295 289 284 284 284 283 282 281 279 279 279 279 280 282 284 287 290 292 294 297 301 304 306 309 311 313 314 315 315 315 315 315 315 316 317 318 320 321 324 326 328 328 328 331
303 297 293 291 289 288 286 286 286 285 285 284 285 288 290 294 296 299 302 305 309 312 316 319 321 322 323 323 323 323 325 326 327 328 330 332 335 339 345 353 359 8 17 34
309 305 302 300 296 293 291 292 292 290 289 290 292 294 297 300 303 307 312 317 321 324 326 328 329 331 332 334 336 340 342 342 342 344 346 350 356 4 14 24 35 46 58 68
308 305 306 307 301 296 295 293 293 291 289 290 292 295 301 307 314 322 328 332 334 336 337 338 339 342 344 347 350 353 354 357 359 3 9 18 26 33 42 49 58 65 72 77
311 311 313 314 311 305 299 295 290 286 285 289 297 305 315 329 337 340 341 343 344 346 347 350 352 355 358 360 3 8 13 17 22 30 37 42 48 55 60 67 71 75 77 81
309 314 315 316 319 318 316 312 294 281 278 303 321 341 359 358 354 353 354 354 355 356 359 2 5 9 12 16 21 26 31 36 43 48 53 56 60 66 71 74 76 78 80 83
305 314 316 313 314 320 323 307 310 230 211 98 64 45 28 15 9 9 8 6 7 9 11 14 17 21 25 30 35 39 43 49 55 59 61 63 66 70 74 76 78 80 83 85
295 306 306 302 300 301 307 251 151 141 129 108 82 58 40 29 25 23 21 21 21 22 23 26 29 33 36 39 43 48 53 58 61 63 64 66 69 73 75 78 80 82 85 87
289 302 299 283 270 239 192 156 144 138 129 111 90 66 49 41 39 38 36 34 33 34 34 36 39 41 43 46 50 54 57 61 63 64 65 66 69 72 76 78 81 83 86 88
269 285 285 250 199 177 164 156 151 145 131 113 94 73 59 53 49 47 44 41 41 41 41 43 45 45 48 51 54 58 61 63 65 65 65 66 69 72 76 79 82 84 86 88
244 251 243 221 197 186 174 166 161 152 139 122 102 81 67 61 56 52 49 48 47 46 46 49 50 51 52 55 58 60 63 64 64 64 66 67 69 72 76 80 83 84 86 87
228 231 223 216 205 188 177 170 166 159 150 135 116 94 80 71 64 59 56 55 54 52 53 54 55 55 55 57 59 61 63 64 64 64 65 67 70 73 76 79 83 85 86 87
221 220 216 211 203 191 182 175 170 167 160 148 130 112 95 83 73 67 64 63 61 60 59 59 58 57 58 59 61 63 63 63 63 64 65 68 71 73 75 78 81 84 86 88
215 213 211 206 198 192 185 181 178 176 172 162 148 130 109 95 84 76 71 68 66 64 62 61 61 61 61 62 62 62 62 63 64 65 67 69 71 73 75 78 81 83 85 86
211 212 211 205 201 197 192 188 187 185 180 173 162 147 128 110 95 83 76 71 69 67 65 64 64 62 62 62 62 61 61 63 64 65 67 68 70 72 74 76 78 80 82 83
Height
5743 5744 5745 5746 5748 5750 5752 5754 5757 5757 5757 5758 5758 5760 5760 5761 5761 5761 5761 5761 5761 5760 5759 5758 5757 5756 5754 5752 5750 5747 5745 5742 5738 5735 5730 5726 5722 5717 5712 5708 5703 5698 5693 5688
5737 5737 5738 5739 5741 5743 5744 5746 5747 5748 5749 5750 5750 5751 5751 5752 5752 5752 5751 5751 5750 5750 5749 5747 5746 5744 5742 5740 5737 5735 5732 5729 5725 5721 5717 5712 5708 5703 5698 5693 5688 5684 5679 5674
5731 5731 5732 5733 5734 5735 5736 5738 5739 5740 5741 5741 5741 5742 5742 5742 5742 5742 5742 5741 5740 5739 5738 5736 5734 5732 5730 5728 5725 5722 5718 5715 5711 5707 5703 5698 5694 5689 5684 5679 5674 5670 5665 5660
5724 5725 5726 5727 5726 5727 5728 5729 5729 5730 5731 5732 5732 5733 5733 5733 5733 5732 5732 5731 5730 5729 5727 5725 5723 5721 5719 5716 5713 5709 5705 5701 5697 5693 5689 5685 5680 5675 5670 5666 5661 5656 5652 5647
5718 5719 5719 5719 5719 5719 5720 5720 5721 5721 5722 5723 5723 5724 5724 5724 5724 5723 5722 5721 5720 5719 5717 5715 5712 5710 5707 5704 5700 5697 5693 5688 5684 5680 5676 5671 5667 5662 5657 5653 5648 5643 5639 5634
5712 5712 5713 5713 5712 5712 5714 5713 5713 5713 5714 5715 5715 5716 5716 5716 5715 5714 5713 5712 5711 5709 5707 5705 5702 5699 5696 5692 5689 5685 5680 5676 5672 5668 5663 5658 5654 5649 5644 5640 5635 5630 5626 5621
5706 5706 5705 5706 5706 5707 5708 5707 5706 5706 5707 5707 5708 5708 5708 5707 5706 5706 5705 5703 5702 5700 5697 5695 5692 5689 5685 5681 5677 5673 5669 5665 5660 5656 5651 5646 5642 5637 5632 5627 5623 5618 5613 5609
5701 5701 5702 5700 5700 5701 5701 5700 5700 5700 5700 5700 5700 5700 5700 5699 5699 5698 5696 5695 5693 5691 5688 5685 5682 5679 5675 5671 5667 5663 5659 5654 5650 5645 5640 5635 5630 5625 5620 5615 5611 5606 5601 5597
5697 5698 5696 5695 5695 5695 5694 5694 5694 5694 5694 5694 5694 5693 5693 5693 5692 5691 5689 5687 5685 5683 5680 5677 5674 5670 5667 5662 5658 5653 5649 5644 5639 5634 5629 5624 5619 5614 5609 5604 5599 5595 5591 5587
5693 5692 5691 5691 5690 5690 5690 5690 5689 5689 5689 5688 5688 5688 5687 5686 5685 5684 5682 5680 5678 5675 5673 5670 5666 5662 5658 5654 5649 5645 5640 5635 5629 5624 5619 5614 5608 5604 5599 5595 5590 5586 5583 5580
5689 5688 5687 5687 5686 5686 5685 5685 5684 5684 5683 5683 5683 5682 5681 5680 5679 5678 5676 5674 5672 5669 5666 5663 5659 5655 5651 5646 5641 5636 5631 5625 5619 5614 5609 5604 5600 5595 5591 5587 5584 5580 5578 5575
5686 5685 5684 5683 5682 5682 5681 5680 5680 5679 5679 5678 5678 5677 5676 5675 5674 5672 5671 5668 5666 5663 5660 5657 5653 5648 5644 5639 5633 5628 5622 5616 5611 5606 5602 5597 5593 5590 5586 5583 5579 5576 5574 5572
5683 5682 5681 5680 5679 5678 5677 5676 5676 5675 5674 5674 5673 5673 5672 5671 5669 5668 5666 5664 5661 5658 5655 5651 5647 5642 5636 5631 5626 5620 5615 5609 5605 5601 5597 5593 5590 5586 5583 5580 5577 5575 5572 5571
5680 5679 5678 5677 5676 5675 5674 5673 5672 5671 5671 5670 5670 5669 5668 5667 5666 5664 5662 5660 5657 5654 5650 5646 5641 5636 5631 5625 5620 5614 5609 5605 5601 5597 5594 5591 5588 5585 5582 5579 5577 5574 5572 5571
5678 5677 5676 5674 5673 5672 5671 5670 5669 5668 5668 5667 5667 5666 5665 5664 5663 5662 5660 5657 5654 5650 5646 5642 5637 5632 5627 5621 5616 5611 5607 5603 5599 5596 5593 5590 5587 5585 5582 5580 5578 5576 5574 5573
5676 5675 5673 5672 5671 5670 5669 5668 5667 5666 5666 5666 5665 5665 5664 5663 5661 5660 5657 5655 5651 5648 5643 5639 5634 5629 5624 5619 5614 5610 5606 5602 5599 5596 5593 5591 5588 5586 5584 5582 5580 5578 5577 5576
5674 5673 5672 5671 5669 5668 5667 5666 5666 5665 5665 5665 5664 5664 5663 5662 5660 5658 5656 5653 5649 5646 5641 5637 5632 5627 5622 5618 5613 5609 5606 5603 5600 5597 5595 5592 5590 5588 5586 5585 5583 5582 5581 5580
5673 5672 5670 5669 5668 5667 5666 5665 5665 5665 5665 5664 5664 5663 5662 5661 5660 5657 5655 5652 5648 5645 5640 5636 5631 5627 5622 5618 5614 5611 5607 5605 5602 5600 5597 5595 5593 5592 5590 5589 5587 5586 5585 5585
5671 5670 5669 5668 5667 5667 5666 5666 5665 5665 5665 5665 5664 5664 5663 5661 5660 5657 5655 5651 5648 5644 5640 5636 5631 5627 5623 5620 5616 5613 5610 5607 5605 5603 5601 5599 5597 5596 5594 5593 5592 5591 5590 5589
5670 5669 5668 5667 5667 5666 5666 5666 5666 5666 5666 5665 5665 5665 5664 5662 5660 5658 5655 5652 5648 5645 5641 5637 5633 5629 5625 5622 5619 5616 5613 5611 5609 5607 5605 5603 5601 5600 5598 5597 5596 5595 5594 5594
5668 5668 5667 5667 5666 5666 5666 5666 5666 5667 5667 5667 5666 5666 5665 5663 5661 5659 5656 5653 5650 5646 5643 5639 5635 5632 5628 5625 5622 5620 5617 5615 5613 5611 5609 5608 5606 5604 5603 5602 5601 5600 5599 5599
5667 5667 5667 5667 5666 5667 5667 5667 5667 5668 5668 5668 5668 5667 5666 5665 5663 5661 5659 5656 5653 5649 5645 5642 5639 5635 5632 5629 5626 5624 5621 5619 5618 5616 5614 5612 5610 5609 5607 5606 5605 5605 5604 5604
5666 5667 5667 5667 5667 5667 5667 5668 5668 5669 5670 5670 5670 5669 5668 5667 5665 5663 5661 5659 5655 5652 5649 5646 5643 5640 5637 5634 5631 5628 5626 5624 5622 5620 5618 5616 5615 5613 5612 5611 5610 5609 5609 5608
5665 5666 5666 5666 5667 5667 5668 5668 5669 5670 5671 5671 5671 5671 5670 5669 5668 5666 5664 5662 5659 5657 5654 5651 5648 5645 5642 5639 5636 5633 5631 5629 5627 5625 5623 5621 5619 5618 5616 5615 5614 5614 5613 5613
5664 5665 5665 5666 5666 5667 5668 5669 5670 5671 5672 5673 5673 5673 5672 5672 5671 5669 5667 5665 5663 5661 5659 5656 5653 5650 5647 5644 5642 5639 5637 5635 5632 5630 5628 5626 5624 5623 5621 5620 5619 5619 5618 5618
5663 5664 5665 5665 5666 5667 5668 5669 5671 5672 5673 5674 5674 5674 5674 5674 5673 5672 5671 5669 5667 5665 5663 5661 5659 5656 5654 5651 5648 5646 5643 5641 5639 5636 5634 5632 5630 5629 5627 5626 5625 5624 5624 5623
5661 5663 5664 5665 5666 5667 5668 5669 5671 5672 5673 5674 5675 5676 5676 5676 5676 5675 5674 5673 5671 5670 5668 5666 5664 5662 5660 5657 5655 5653 5650 5648 5646 5643 5641 5639 5637 5635 5634 5632 5631 5630 5629 5629